Flag for Russia Weather past 2 weeks in Astrakhan, Russia

Now
63 °F

Sunny.


Feels Like: 63 °F
Forecast: 54 / 80 °F
Wind: 13 mph from East

Location: Astrakhan


UV Index: 5 (Moderate)

Visibility: 10 mi


Pressure: 30.04 "Hg

Humidity: 49%

Dew point: 43 °F

Location of AstrakhanLocation

Historic Weather in Astrakhan

°F

Astrakhan temperature yesterday

Maximum temperature yesterday: 79 °F (at 12:00 PM)
Minimum temperature yesterday: 52 °F (at 3:00 AM)
Average temperature yesterday: 65 °F

Past Weeks' High & Low Weather Summary

 TemperatureHumidityPressure
High79 °F (Apr 19, 12:00 PM)93% (Apr 9, 4:30 AM)30.48 "Hg (Apr 9, 4:30 AM)
Low27 °F (Apr 7, 5:30 AM)11% (Apr 19, 2:00 PM)29.71 "Hg (Apr 9, 2:00 PM)
Average51 °F52%30.08 "Hg
* Reported Apr 5 8:00 AM — Apr 20 8:00 AM, Astrakhan, Weather by CustomWeather, © 2014

Note: Actual official high and low records may vary slightly from our data, if they occured in-between our weather recording intervals... More about our weather records

Advertising

Historic Weather Conditions — Data for Previous 24 hours

 ConditionsComfort  
Time TempWeatherWind HumidityBarometerVisibility
8:00 AM
Apr 20
59 °FSunny.13 mph55%30.04 "Hg10 mi
7:30 AM55 °FSunny.10 mph63%30.04 "Hg10 mi
7:00 AM52 °FSunny.10 mph67%30.04 "Hg10 mi
6:30 AM50 °FClear.10 mph71%30.04 "Hg10 mi
6:00 AM52 °FClear.13 mph62%30.04 "Hg10 mi
5:30 AM52 °FClear.13 mph62%30.04 "Hg10 mi
5:00 AM52 °FClear.10 mph62%30.04 "Hg10 mi
4:30 AM54 °FClear.10 mph54%30.04 "Hg10 mi
4:00 AM54 °FClear.10 mph54%30.04 "Hg10 mi
3:30 AM55 °FClear.13 mph51%30.04 "Hg10 mi
3:00 AM55 °FClear.13 mph55%30.07 "Hg10 mi
2:30 AM55 °FClear.13 mph59%30.07 "Hg10 mi
2:00 AM54 °FClear.8 mph67%30.07 "Hg10 mi
1:30 AM54 °FClear.8 mph63%30.09 "Hg10 mi
1:00 AM54 °FClear.8 mph63%30.09 "Hg10 mi
12:30 AM55 °FClear.8 mph59%30.09 "Hg10 mi
12:00 AM55 °FClear.8 mph55%30.09 "Hg10 mi
11:30 PM
Apr 19
55 °FClear.8 mph55%30.09 "Hg10 mi
11:00 PM55 °FClear.6 mph51%30.09 "Hg10 mi
10:30 PM55 °FClear.6 mph41%30.09 "Hg10 mi
10:00 PM57 °FClear.6 mph36%30.09 "Hg10 mi
9:30 PM55 °FClear.6 mph36%30.09 "Hg10 mi
9:00 PM59 °FClear.8 mph31%30.09 "Hg10 mi
8:30 PM61 °FSunny.8 mph27%30.09 "Hg10 mi
8:00 PM63 °FSunny.8 mph27%30.09 "Hg10 mi
7:30 PM66 °FSunny.8 mph26%30.09 "Hg10 mi
7:00 PM70 °FSunny.10 mph20%30.09 "Hg10 mi
6:30 PM73 °FSunny.13 mph16%30.09 "Hg10 mi
6:00 PM75 °FSunny.15 mph15%30.09 "Hg10 mi
5:30 PM75 °FSunny.17 mph13%30.09 "Hg10 mi
5:00 PM77 °FSunny.17 mph12%30.09 "Hg10 mi
4:30 PM77 °FSunny.17 mph12%30.09 "Hg10 mi
4:00 PM77 °FSunny.17 mph11%30.09 "Hg10 mi
3:30 PM77 °FSunny.17 mph11%30.09 "Hg10 mi
3:00 PM79 °FSunny.17 mph12%30.09 "Hg10 mi
2:30 PM79 °FSunny.17 mph11%30.09 "Hg10 mi
2:00 PM79 °FSunny.17 mph11%30.09 "Hg10 mi
1:30 PM79 °FSunny.15 mph12%30.09 "Hg10 mi
1:00 PM79 °FSunny.15 mph12%30.09 "Hg10 mi
12:30 PM79 °FSunny.15 mph13%30.09 "Hg10 mi
12:00 PM79 °FSunny.15 mph13%30.09 "Hg10 mi
11:30 AM77 °FSunny.15 mph14%30.09 "Hg10 mi
11:00 AM77 °FSunny.15 mph15%30.09 "Hg10 mi
10:30 AM77 °FPassing clouds.13 mph13%30.09 "HgN/A
10:00 AM73 °FSunny.15 mph16%30.07 "Hg10 mi
9:30 AM70 °FSunny.8 mph33%30.07 "Hg10 mi
9:00 AM68 °FSunny.13 mph33%30.07 "Hg10 mi
Weather by CustomWeather, © 2014

See weather overview